Location: Heussern
(48.3878°N, 7.6290°E)
Time: 22:46:52
(UTC+00:00)

Daily predictions for brighter satellites

Satellite Brightness Start Highest point End
(mag) Time Altitude Azimuth Time Altitude Azimuth Time Altitude Azimuth
Cosmos 1656 4.1 16:04:43 10° NNW 16:10:14 72° WSW 16:15:49 10° SSE
USA 234 3.3 16:06:08 10° ESE 16:12:38 69° NNE 16:19:08 10° NW
SL-24 R/B - RUBIN 2 4.0 16:09:23 10° NNW 16:13:48 42° NE 16:17:57 10° ESE
NOSS 3-1 (A) 4.2 16:07:01 10° NW 16:14:27 87° SW 16:23:13 10° SE
ISS -3.7 16:12:01 10° WNW 16:15:25 69° NNE 16:18:48 10° ESE
NOAA 6 4.3 16:12:11 10° SE 16:17:05 47° ENE 16:21:59 10° N
NOSS 2-2 (D) 4.4 16:14:15 10° NW 16:19:05 55° NE 16:25:47 10° ESE
Cosmos 1408 Rocket 3.9 16:14:48 10° NNW 16:19:09 71° W 16:23:31 10° S
NOSS 2-2 (E) 4.3 16:14:10 10° NW 16:19:13 65° NE 16:26:18 10° SE
Cosmos 1666 4.2 16:19:29 10° NNE 16:21:54 16° ENE 16:24:18 10° ESE
Cosmos 2026 Rocket 4.1 16:20:17 10° N 16:26:15 49° ENE 16:32:05 10° SSE
PSLV R/B 4.5 16:23:50 10° SE 16:27:04 29° ENE 16:30:20 10° N
Cosmos 1743 Rocket 3.5 16:24:08 10° N 16:28:30 79° E 16:32:49 10° SSE
Cosmos 2322 Rocket 3.7 16:25:02 10° N 16:28:41 17° NE 16:32:02 11° ENE
USA 305 3.7 16:25:04 10° WNW 16:29:04 38° N 16:32:40 12° ENE
CZ-4B R/B 2.8 16:25:40 10° SSE 16:29:41 89° W 16:33:31 10° NNW
Cosmos 1697 Rocket 2.7 16:24:35 10° NNW 16:30:15 87° ENE 16:35:52 10° SSE
Cosmos 1933 3.6 16:26:49 10° SSE 16:30:42 48° E 16:34:37 10° NNE
Cosmos 1980 Rocket 2.3 16:29:25 10° NNW 16:35:00 54° ENE 16:40:31 10° SE
SL-08 R/B 3.5 16:30:24 10° N 16:35:07 75° WNW 16:39:44 10° SSW
Okean O Rocket 2.8 16:33:26 10° ESE 16:36:47 21° ENE 16:40:09 10° NNE
Cosmos 540 Rocket 3.6 16:33:13 10° S 16:38:10 54° ESE 16:43:09 10° NNE
FengYun 1-2 T 4.2 16:32:38 10° SSE 16:38:13 85° ENE 16:43:47 10° NNW
SJ 16-02 4.4 16:36:41 10° WNW 16:39:24 16° W 16:42:06 10° SW
Cosmos 2369 3.7 16:33:39 10° NNW 16:39:24 71° ENE 16:45:06 10° SE
Cosmos 1666 Rocket 4.3 16:35:45 10° N 16:39:44 31° ENE 16:43:40 10° SE
Cosmos 1809 Rocket 4.4 16:37:40 10° N 16:43:47 72° ENE 16:49:51 10° SSE
Cosmos 1812 3.7 16:42:49 10° SSE 16:46:06 27° E 16:48:49 13° NE
NOAA 12 4.5 16:41:28 10° S 16:46:46 70° WSW 16:52:06 10° NNW
SL-16 R/B 3.2 16:42:56 10° N 16:47:35 25° NE 16:51:23 13° E
ERBS 4.0 16:45:25 10° WNW 16:47:53 20° NNW 16:49:40 14° NNE
CORIOLIS 4.1 16:44:50 10° SSE 16:50:14 79° ENE 16:55:42 10° NNW
Cosmos 2082 Rocket 2.5 16:46:38 10° S 16:52:02 47° ESE 16:56:54 13° NE
Meteor 1-25 Rocket 4.5 16:49:43 10° NNW 16:55:18 74° W 17:00:53 10° S
Cosmos 468 Rocket 4.3 16:52:10 10° SSW 16:57:18 68° WNW 17:02:32 10° NNE
Cosmos 2333 Rocket 4.0 16:57:27 10° N 17:00:00 13° NNE 17:00:43 13° NE
MOS 1-B Rocket 4.3 16:55:39 10° NNE 17:01:24 49° E 17:07:53 10° S
USA 306 3.6 16:57:25 10° WNW 17:01:26 39° N 17:03:34 23° ENE
Cosmos 1898 Rocket 4.5 16:57:05 10° NNW 17:02:10 51° WSW 17:07:10 10° S
Cosmos 2278 3.7 16:57:22 10° NNW 17:03:04 63° ENE 17:08:42 10° SE
CZ-4B DEB 4.2 16:57:35 10° SSE 17:03:06 86° ENE 17:08:38 10° NNW
Cosmos 1602 4.1 16:59:52 10° NNW 17:03:42 65° W 17:07:32 10° S
Sich 1 3.0 16:59:33 10° N 17:03:53 89° WSW 17:08:11 10° S
Cosmos 1818 3.8 16:58:46 10° NNW 17:04:06 47° NE 17:08:58 12° ESE
Cosmos 1939 Rocket 3.6 17:00:48 10° S 17:04:51 58° W 17:08:53 10° NNW
ARGOS 3.4 17:01:26 10° SE 17:06:32 44° ENE 17:11:37 10° N
Cosmos 1805 Rocket 4.0 17:04:14 10° NNW 17:08:31 63° W 17:12:48 10° S
Cosmos 1833 Rocket 3.1 17:06:20 10° SW 17:11:55 64° WNW 17:17:32 10° NNE
COSMOS 2406 3.4 17:10:04 10° SSW 17:15:49 76° WNW 17:21:11 12° NNE
GEOS 3 Rocket 4.2 17:13:44 24° E 17:16:10 36° NE 17:20:52 10° NNW
deb Chang Zheng 4 3.6 17:13:37 10° SSE 17:17:49 55° ENE 17:22:03 10° N
USA 307 3.5 17:16:38 10° WNW 17:20:41 41° N 17:21:59 32° NE
Cosmos 2219 Rocket 4.0 17:18:14 10° N 17:20:35 13° NNE 17:20:35 13° NNE
USA 267 3.3 17:16:33 20° NE 17:21:17 79° NNW 17:27:49 10° WSW
Cosmos 1782 3.1 17:19:19 10° SSW 17:23:17 67° W 17:27:17 10° N
CZ-2C R/B 2.6 17:21:47 12° NNE 17:26:28 54° E 17:31:31 10° S
Cosmos 2208 Rocket 4.3 17:21:38 10° S 17:26:48 48° ESE 17:29:27 27° NE
Cosmos 1500 4.0 17:24:45 10° NNW 17:28:24 50° W 17:32:00 10° S
SL-08 RB Rocket 4.0 17:24:29 10° SE 17:28:53 44° ENE 17:33:15 10° N
CZ-2D R/B 3.7 17:25:29 10° S 17:29:16 64° W 17:33:05 10° NNW
Cosmos 2150 Rocket 4.2 17:25:09 10° NNW 17:30:09 46° ENE 17:33:12 22° SE
CZ-4C R/B 3.0 17:23:38 10° NW 17:30:49 87° SW 17:39:16 10° SE
Meteor 2-16 Rocket 4.4 17:25:33 10° N 17:31:42 87° E 17:37:50 10° S
Meteor 2-6 Rocket 4.2 17:26:30 10° S 17:32:08 58° E 17:36:56 14° NNE
H-2A R/B 2.2 17:27:20 10° S 17:32:30 76° WSW 17:37:33 10° NNW
CZ-4B R/B 3.1 17:28:28 10° SSE 17:33:53 86° ENE 17:39:15 10° NNW
Cosmos 841 Rocket 3.8 17:30:59 10° SSW 17:36:06 67° WNW 17:40:21 15° NNE
ATLAS CENTAUR R/B 4.0 17:36:32 10° NNW 17:38:01 11° N 17:39:25 10° N
YAOGAN 3 4.4 17:34:30 10° SSE 17:38:51 76° ENE 17:43:13 10° N
USA 308 3.3 17:39:14 10° WNW 17:43:20 45° NNE 17:43:39 45° NNE
COSMO-SKYMED 1 2.4 17:41:39 30° NNE 17:43:48 77° ESE 17:48:09 10° S
Lacrosse 5 rocket 1.1 17:40:27 10° NW 17:44:22 74° NE 17:44:49 65° E
Cosmos 2142 Rocket 4.5 17:38:54 10° S 17:45:03 83° W 17:51:21 10° N
Cosmos 1125 Rocket 3.5 17:40:12 10° NNW 17:45:23 56° ENE 17:47:31 33° SE
Cosmos 921 Rocket 3.4 17:42:01 10° S 17:45:22 43° SE 17:45:22 43° SE
COSMOS 2455 3.1 17:42:43 10° SW 17:48:42 67° NW 17:52:28 24° NNE
Cosmos 2279 Rocket 4.0 17:44:16 10° SSW 17:50:29 80° W 17:56:44 10° N
Cosmos 1633 Rocket 3.4 17:46:36 10° NNW 17:50:56 64° W 17:55:15 10° S
Helios 1B 4.4 17:49:55 35° NNE 17:51:45 88° ESE 17:56:04 10° SSW
ATLAS 2AS CENTAUR R/B 4.1 17:45:50 10° NW 17:51:55 25° N 17:54:01 22° NNE
ISS -2.0 17:49:03 10° W 17:52:04 30° SW 17:53:03 25° S
Meteor 2-15 Rocket 4.4 17:46:35 10° SSE 17:52:32 55° E 17:55:52 26° NNE
Cosmos 2360 Rocket 3.0 17:47:57 10° NNW 17:52:12 32° NNE 17:52:12 32° NNE
Cosmos 2266 Rocket 3.9 17:47:22 10° N 17:53:46 70° E 18:00:10 10° SSE
Cosmos 44 Rocket 3.2 17:49:04 10° NW 17:54:01 87° SW 17:56:03 35° SE
YAOGAN 1 4.0 17:56:50 25° N 17:56:50 25° N 17:58:43 10° N
CZ-4 R/B 4.0 17:59:29 10° N 17:59:29 10° N 17:59:30 10° N
USA 234 4.1 17:49:34 10° SSE 17:55:51 48° SW 18:02:08 10° WNW
Meteor 1-11 Rocket 3.6 17:51:59 10° N 17:57:36 65° ENE 18:03:17 10° SSE
Cosmos 1666 3.9 17:54:07 10° NNW 17:57:39 42° W 18:01:09 10° SSW
Meteor 1-10 Rocket 4.1 17:52:05 10° S 17:57:48 68° E 18:00:37 31° NNE
Cosmos 1151 Rocket 3.8 17:57:12 10° SSW 18:01:25 51° WNW 18:04:40 17° N
USA 305 3.5 18:05:15 10° WNW 18:08:40 49° NNW 18:08:40 49° NNW
Cosmos 1900 4.2 18:06:36 10° SW 18:11:29 87° NW 18:11:48 79° NNE
Okean O Rocket 2.5 18:08:29 10° S 18:12:49 50° W 18:17:11 10° NNW
Cosmos 2322 Rocket 2.1 18:08:11 10° NNW 18:13:53 66° ENE 18:13:54 66° ENE
Feng Yun 1-1 Rocket 4.3 18:08:01 10° SSE 18:13:57 85° WSW 18:19:51 10° NNW
Meteor 2-15 4.4 18:09:04 10° S 18:15:11 83° W 18:21:06 11° N
Landsat 5 3.9 18:16:56 58° SW 18:16:56 58° SW 18:20:17 10° SSW
Cosmos 1980 Rocket 4.2 18:13:57 10° NW 18:18:41 28° WSW 18:23:23 10° SSW
Cosmos 1470 Rocket 4.3 18:16:41 10° NNW 18:21:02 53° W 18:25:23 10° S
Spot 2 4.5 18:20:28 30° S 18:23:03 82° WSW 18:28:13 10° NNW
SL-16 R/B 2.3 18:26:36 10° NNW 18:32:17 73° WSW 18:33:21 57° S
Cosmos 2082 Rocket 3.5 18:31:09 10° WSW 18:36:18 35° NW 18:38:46 24° N
ATLAS CENTAUR R/B 3.5 18:32:13 10° W 18:37:44 33° NW 18:37:44 33° NW
Cosmos 2333 Rocket 3.8 18:40:25 10° NNW 18:42:44 23° N 18:42:44 23° N
GEOS 3 Rocket 4.2 18:54:52 53° W 18:54:52 53° W 18:59:11 10° NW
USA 267 3.9 19:03:54 45° N 19:03:54 45° N 19:10:04 10° W
Cosmos 2219 Rocket 4.2 19:00:55 10° NNW 19:02:19 18° NNW 19:02:19 18° NNW
Cosmos 2360 Rocket 4.2 19:31:50 10° NW 19:33:59 23° NW 19:33:59 23° NW
ATLAS 2AS CENTAUR R/B 4.3 19:37:50 10° NW 19:41:26 27° NNW 19:41:26 27° NNW
Cosmos 2322 Rocket 4.5 19:53:05 10° NW 19:55:46 20° WNW 19:55:46 20° WNW
